Home   Weather   Kansas City   Past weeks
Flag for USA

Past Weather in Kansas City, Missouri, USA — Yesterday and Last 2 Weeks

Now
67 °F

Sunny.


Feels Like: 67 °F
Forecast: 68 / 42 °F
Wind: 12 mph from Southeast

Location: Kansas City Downtown Airport

Current Time: Oct 17, 2019 at 3:37:56 pm

Latest Report: Oct 17, 2019 at 2:54 pm


Visibility: 10 mi

Pressure: 29.91 "Hg

Humidity: 41%

Dew Point: 42 °F

Location of Kansas CityLocation

Past Weather in Kansas City — Graph

°F

Kansas City Temperature Yesterday

Maximum temperature yesterday: 56 °F (at 4:54 pm)
Minimum temperature yesterday: 42 °F (at 3:54 am)
Average temperature yesterday: 48 °F

High & Low Weather Summary for the Past Weeks

 TemperatureHumidityPressure
High88 °F (Oct 2, 2:54 pm)100% (Oct 7, 8:09 am)30.36 "Hg (Oct 7, 8:09 am)
Low33 °F (Oct 12, 6:54 am)25% (Oct 12, 4:54 pm)29.69 "Hg (Oct 10, 3:54 pm)
Average57 °F68%30.05 "Hg
* Reported Oct 2 1:54 pm — Oct 17 1:54 pm, Kansas City. Weather by CustomWeather, © 2019

Note: Actual official high and low records may vary slightly from our data, if they occured in-between our weather recording intervals... More about our weather records

Advertising

Kansas City Weather History for the Previous 24 Hours

Scroll right to see more
 ConditionsComfort  
Time TempWeatherWind HumidityBarometerVisibility
1:54 pm
Thu, Oct 17
66 °FSunny.9 mph40%29.94 "Hg10 mi
12:54 pm64 °FSunny.9 mph45%29.97 "Hg10 mi
11:54 am61 °FSunny.12 mph50%30.00 "Hg10 mi
10:54 am58 °FSunny.7 mph58%30.02 "Hg10 mi
8:54 am49 °FSunny.5 mph74%30.05 "Hg10 mi
7:54 am44 °FSunny.No wind79%30.05 "Hg10 mi
6:54 am43 °FClear.5 mph79%30.05 "Hg10 mi
5:54 am43 °FClear.6 mph82%30.05 "Hg10 mi
4:54 am45 °FClear.No wind80%30.05 "Hg10 mi
3:54 am45 °FClear.No wind80%30.06 "Hg10 mi
2:54 am45 °FClear.3 mph80%30.06 "Hg10 mi
1:54 am46 °FClear.No wind77%30.07 "Hg10 mi
12:54 am47 °FClear.No wind80%30.07 "Hg10 mi
11:54 pm
Wed, Oct 16
47 °FClear.No wind80%30.09 "Hg10 mi
10:54 pm46 °FClear.3 mph86%30.09 "Hg10 mi
9:54 pm47 °FClear.No wind83%30.09 "Hg10 mi
8:54 pm51 °FClear.No wind63%30.09 "Hg6 mi
7:54 pm53 °FClear.No wind61%30.10 "Hg10 mi
6:54 pm53 °FClear.No wind55%30.11 "Hg10 mi
5:54 pm55 °FSunny.3 mph53%30.11 "Hg10 mi
4:54 pm56 °FSunny.6 mph49%30.13 "Hg10 mi
3:54 pm55 °FSunny.6 mph53%30.14 "Hg10 mi
Weather by CustomWeather, © 2019

See weather overview